Location: Brockerberg
(51.2167°N, 6.9000°E)
Time: 17:14:12
(UTC+00:00)

Daily predictions for brighter satellites

Satellite Brightness Start Highest point End
(mag) Time Altitude Azimuth Time Altitude Azimuth Time Altitude Azimuth
Nadezhda 1 Rocket 4.3 20:25:20 10° NNW 20:31:45 75° W 20:38:07 10° S
Cosmos 1709 Rocket 4.3 20:27:14 10° SSE 20:33:21 55° E 20:39:33 10° NNE
Atlas Centaur 2 4.3 20:33:42 10° S 20:35:11 11° S 20:36:44 10° SSE
MetOp-B 4.5 20:30:02 10° S 20:35:22 69° WSW 20:40:44 10° NNW
Terra 2.6 20:32:21 10° SE 20:36:45 39° ENE 20:41:10 10° N
Cosmos 2237 Rocket 4.1 20:35:01 10° ESE 20:36:46 11° E 20:38:31 10° ENE
CARTOSAT-1 3.9 20:33:37 10° SSE 20:37:49 54° ENE 20:42:03 10° N
Cosmos 2219 Rocket 3.0 20:33:45 10° SSE 20:38:34 31° ESE 20:43:26 10° NE
Cosmos 2360 Rocket 2.2 20:34:38 10° SSW 20:40:16 77° ESE 20:45:58 10° NNE
IGS 5A 3.6 20:36:50 10° S 20:40:59 77° WSW 20:45:11 10° NNW
Cosmos 2333 Rocket 2.8 20:43:04 10° S 20:48:17 39° ESE 20:53:33 10° NE
ATLAS 2AS CENTAUR R/B 3.7 20:42:41 10° NW 20:50:14 50° NNE 20:57:12 10° ESE
Cosmos 1315 Rocket 3.4 20:46:17 10° N 20:50:16 47° ENE 20:54:14 10° SSE
CZ-2C R/B 4.5 20:47:52 10° N 20:52:46 35° WNW 20:57:33 10° SW
Resurs 01 Rocket 3.4 20:49:11 10° SSW 20:53:01 28° W 20:56:52 10° NW
Cosmos-2242 3.4 20:49:28 10° NNW 20:53:47 67° W 20:58:07 10° S
Cosmos 1818 3.6 20:50:01 10° SW 20:55:28 81° SE 21:00:57 10° NE
Cosmos 773 Rocket 4.1 20:53:07 10° S 20:58:19 59° ESE 21:03:32 10° NNE
Cosmos 2221 3.5 20:54:37 10° N 20:58:42 35° ENE 21:02:29 11° SE
SL-16 R/B 3.6 20:53:58 10° WSW 20:59:23 44° NW 21:04:50 10° NNE
ERS-1 Rocket 3.0 20:57:14 10° SSE 21:02:17 87° WSW 21:07:22 10° NNW
GEOS 3 Rocket 3.7 20:57:29 10° NE 21:02:53 69° SE 21:08:15 10° SSW
USA 215 3.5 21:00:04 10° ENE 21:06:20 46° SE 21:12:33 10° SSW
Cosmos 2278 Rocket 2.7 21:02:13 10° NNW 21:07:48 55° NE 21:13:09 11° SE
Cosmos 1892 4.4 21:07:02 11° SE 21:09:23 19° E 21:12:05 10° NE
ATLAS 5 CENTAUR R/B 1.6 21:07:51 10° SW 21:12:04 90° NE 21:16:54 10° NE
Cosmos 1844 Rocket 3.7 21:07:18 10° NW 21:12:27 39° WSW 21:17:36 10° S
Meteor 1-11 4.2 21:07:21 10° S 21:12:59 79° E 21:18:43 10° NNE
Cosmos 1400 Rocket 4.0 21:09:21 10° NNW 21:13:05 39° W 21:16:46 10° SSW
Gblst 52 Del rocket 4.4 21:08:29 10° WNW 21:14:06 67° SSW 21:20:20 10° ESE
Cosmos 1943 Rocket 4.5 21:11:14 10° NNW 21:15:04 18° NNE 21:18:53 10° ENE
SPOT 5 3.1 21:14:00 10° S 21:19:02 73° WSW 21:23:49 10° NNW
Lacrosse 5 rocket 3.0 21:16:23 10° WNW 21:20:18 36° N 21:24:02 10° ENE
USA 81 4.1 21:20:36 10° S 21:25:53 89° W 21:31:14 10° N
BREEZE M DEB (TANK) 3.7 21:25:36 10° WSW 21:27:04 15° SW 21:27:38 14° SSW
Cosmos 2058 3.9 21:25:00 15° SE 21:27:45 30° E 21:31:25 10° NNE
Cosmos 2181 Rocket 4.2 21:21:35 10° NNW 21:27:56 72° W 21:34:09 10° S
Cosmos 1408 4.3 21:29:06 14° ESE 21:30:50 19° E 21:33:24 10° NE
TSX-5 3.7 21:31:12 10° NNW 21:34:36 73° NE 21:37:36 17° SE
Cosmos 2074 Rocket 4.1 21:29:15 11° S 21:35:06 63° E 21:41:15 10° NNE
Cosmos 1076 Rocket 4.3 21:36:08 17° SSE 21:38:57 36° E 21:42:52 10° NNE
Cosmos 1953 Rocket 4.4 21:34:58 10° SSW 21:39:10 49° WNW 21:43:24 10° N
Cosmos 1680 Rocket 4.4 21:35:41 15° SSE 21:39:16 32° ESE 21:43:58 10° NE
USA 267 3.3 21:34:05 11° SE 21:40:32 79° SSW 21:47:09 10° WNW
CZ-4C R/B 4.3 21:37:39 10° NW 21:43:26 33° NNE 21:50:10 10° E
Cosmos 2084 4.1 21:40:49 10° NW 21:45:05 45° SW 21:48:05 18° SSE
Cosmos 1842 Rocket 3.7 21:41:14 10° NNW 21:45:35 72° W 21:49:02 16° S
Cosmos 2322 Rocket 4.4 21:42:12 10° W 21:47:00 28° NW 21:51:50 10° NNE
JB-3 4.3 21:43:17 10° NNE 21:47:08 64° ESE 21:49:57 17° S
COSMOS 2455 4.4 21:42:08 10° NNW 21:47:30 32° NNE 21:52:51 10° E
MTI 3.6 21:48:02 10° NNE 21:51:09 76° ESE 21:53:10 19° S
ATLAS CENTAUR R/B 2.3 21:53:11 10° WNW 21:56:26 29° WSW 21:58:26 18° S
Cosmos 923 Rocket 4.2 21:52:20 14° S 21:56:39 55° ESE 22:01:50 10° NNE
Cosmos 2369 Rocket 4.2 21:55:25 10° NNW 21:59:46 22° NE 22:04:06 10° E
Cosmos 1825 3.4 21:58:09 19° SE 21:59:53 27° E 22:03:08 10° NNE
ALOS 2 3.8 21:58:03 14° ESE 22:01:10 32° ENE 22:05:05 10° N
Cosmos 1980 4.0 21:56:55 15° S 22:01:27 50° ESE 22:06:54 10° NE
COSMOS 2428 2.9 22:00:42 10° SW 22:06:22 76° WNW 22:12:05 10° NNE
Cosmos 1869 3.9 22:02:40 10° NNW 22:06:32 50° W 22:09:22 17° SSW
GP-B 4.5 22:05:08 10° NNE 22:08:55 27° E 22:11:23 17° SE
Cosmos 1624 Rocket 4.1 22:08:03 10° NNW 22:13:19 70° ENE 22:16:57 20° SE
NOSS 3-4 (A) 3.8 22:06:48 10° NW 22:13:41 81° SW 22:19:46 17° SE
NOSS 0 Rocket 3.9 22:07:40 10° SSW 22:13:47 71° ESE 22:19:58 10° NE
NOSS 3-4 (C) 3.8 22:06:54 10° NW 22:13:48 81° SW 22:19:55 17° SE
Terra 3.1 22:10:34 11° SSW 22:14:34 32° W 22:18:52 10° NNW
Cosmos 2237 Rocket 2.3 22:14:58 15° SSW 22:19:42 64° ESE 22:25:21 10° NE
Genesis I 3.8 22:18:36 25° S 22:20:13 37° ESE 22:23:51 10° NE
SL-4 R/B 3.2 22:19:54 10° ENE 22:20:23 11° ENE 22:21:00 10° NE
Cosmos 2219 Rocket 2.9 22:16:47 10° SW 22:22:15 55° NW 22:27:49 10° NNE
Cosmos 2344 3.8 22:16:02 13° S 22:22:18 48° ESE 22:29:55 10° NE
Cosmos 2360 Rocket 4.4 22:20:07 10° W 22:24:53 27° NW 22:29:43 10° NNE
NOSS 3-3 (A) 4.2 22:19:00 10° SW 22:25:00 76° NW 22:31:53 10° NE
NOSS 3-3 (C) 4.2 22:19:06 10° SW 22:25:06 77° NW 22:32:00 10° NE
Thor Agena Rocket 3.5 22:24:39 10° NNE 22:29:48 75° ESE 22:33:19 20° S
Cosmos 2333 Rocket 3.3 22:27:01 10° SW 22:32:29 46° NW 22:38:03 10° NNE
Cosmos 2221 4.1 22:32:24 10° NNW 22:36:09 28° W 22:39:20 13° SW
Iridium 2 4.0 22:36:39 10° NNW 22:40:26 61° W 22:42:26 25° SSW
BREEZE-M DEB (TANK) 1.7 22:37:10 10° W 22:40:55 44° SSW 22:41:22 39° SSE
Cosmos 1371 Rocket 4.1 22:35:50 10° NNW 22:41:03 67° WSW 22:44:15 24° S
ATLAS 2AS CENTAUR R/B 3.0 22:34:04 10° NW 22:41:35 64° SW 22:46:25 21° SSE
EO 1 Del DPAF 3.1 22:39:09 10° NNE 22:42:56 88° WNW 22:44:59 26° SSW
MOS 1-B Rocket 4.4 22:36:43 10° NNE 22:44:41 83° ESE 22:49:56 18° SSW
Cosmos 1892 3.7 22:41:59 15° SW 22:44:47 41° WNW 22:48:25 10° N
Cosmos 1766 Rocket 3.9 22:44:24 26° SSE 22:46:33 52° E 22:50:52 10° NNE
Cosmos 1328 Rocket 3.8 22:43:51 10° N 22:48:08 58° ENE 22:50:25 26° SSE
Aureole 2 Rocket 1.8 22:45:24 10° NNW 22:48:14 87° WSW 22:48:59 45° SSE
Okean 3 Rocket 3.7 22:47:02 27° S 22:49:22 64° E 22:53:46 10° NNE
USA 215 3.4 22:43:05 10° ENE 22:49:40 80° NNW 22:56:13 10° WSW
Cosmos 1606 2.7 22:46:37 10° N 22:50:31 77° E 22:52:19 30° SSE
Cosmos 2278 Rocket 3.4 22:46:42 10° NW 22:51:39 31° WSW 22:54:59 18° SSW
Cosmos 2112 Rocket 4.1 22:48:23 16° SSW 22:52:42 83° WNW 22:58:06 10° NNE
Cosmos 2297 3.7 22:47:39 10° NNW 22:53:27 88° WSW 22:57:12 23° SSE
Cosmos 2218 Rocket 4.3 22:50:54 22° SSE 22:54:56 57° E 23:01:06 10° NNE
Cosmos 158 Rocket 4.0 22:52:56 16° SSW 22:56:53 71° WNW 23:01:50 10° NNE
Cosmos 1420 Rocket 4.0 22:51:59 10° NNW 22:57:18 85° ENE 23:00:36 24° SSE
ATLAS 5 CENTAUR R/B 4.0 22:53:29 10° W 22:57:22 28° NNW 23:01:45 10° NE
Cosmos 1943 Rocket 2.7 22:54:27 10° NNW 23:00:05 58° NE 23:04:40 15° SE
Lacrosse 5 rocket 2.2 22:56:07 10° WNW 23:00:05 47° NNE 23:03:49 10° E
Cosmos 2366 rocket 4.3 22:56:35 23° SSE 23:00:36 60° E 23:06:52 10° NNE
Cosmos 1633 4.1 23:01:11 21° ESE 23:02:23 25° E 23:05:24 10° NE
SL-16 R/B 2.4 23:00:47 24° S 23:04:02 55° ESE 23:09:36 10° NE
TIMED 4.5 23:01:49 23° SSW 23:04:29 88° WNW 23:08:53 10° NNE
Cosmos 2058 4.5 23:01:10 11° SW 23:04:39 30° WNW 23:08:20 10° N
Cosmos 2056 Rocket 4.0 22:59:43 10° NNW 23:04:57 51° WSW 23:07:58 24° S
Cosmos 1408 3.7 23:03:24 18° SW 23:05:37 36° WNW 23:08:58 10° N
YAOGAN 11 4.5 23:09:09 24° SE 23:11:39 59° ENE 23:16:02 10° N
Cosmos 2341 Rocket 4.1 23:11:46 20° SSW 23:16:16 71° WNW 23:22:30 10° N
Cosmos 332 Rocket 3.7 23:13:52 10° NNW 23:18:42 85° ENE 23:21:28 26° SSE
Cosmos 1680 Rocket 4.4 23:16:07 10° SW 23:21:14 46° WNW 23:26:24 10° NNE
USA 267 4.2 23:21:24 22° SSW 23:24:13 29° SW 23:29:50 10° WNW
Meteor 2-3 Rocket 3.8 23:21:02 25° S 23:24:21 70° E 23:30:03 10° NNE
IRIDIUM 104 4.4 23:23:26 25° SSW 23:26:31 77° W 23:31:46 10° N
Cosmos 2151 3.8 23:23:52 19° SW 23:26:33 43° WNW 23:30:40 10° N
Helios 1A 2.9 23:24:53 31° S 23:26:52 83° WSW 23:31:04 10° NNW
Cosmos 405 3.3 23:24:10 10° N 23:27:41 60° ENE 23:29:08 32° SE
Meteor 1-26 Rocket 4.4 23:25:40 10° NNW 23:31:43 79° W 23:35:20 25° S
Cosmos 1452 Rocket 3.5 23:26:49 10° NNW 23:32:06 76° WSW 23:35:06 26° SSE
CZ-4C R/B 3.2 23:26:16 10° NW 23:33:07 69° NE 23:41:11 10° SE
COSMOS 2455 2.8 23:28:01 10° NW 23:34:05 81° WSW 23:38:24 20° SSE
PSLV R/B 4.4 23:30:47 10° NNE 23:34:43 37° E 23:36:34 24° SE
SL-8 Rocket 4.1 23:30:59 21° SSW 23:35:13 68° WNW 23:41:24 10° N
Cosmos 1825 3.8 23:32:56 15° WSW 23:35:21 28° WNW 23:38:40 10° N
Cosmos 1340 2.6 23:34:23 33° SSW 23:35:58 80° WNW 23:39:45 10° N
Cosmos 1933 3.9 23:32:40 10° NNW 23:36:32 45° W 23:38:13 28° SSW
ALOS 2 3.6 23:35:27 23° SW 23:37:28 34° W 23:41:31 10° NNW
Cosmos 1151 Rocket 3.7 23:33:56 10° NNW 23:38:04 43° W 23:40:03 26° SSW
Cosmos 1408 Rocket 3.5 23:35:56 29° SSW 23:38:08 82° WNW 23:42:34 10° N
SL-16 R/B 4.2 23:34:05 10° ESE 23:39:17 29° NE 23:44:30 10° N
Cosmos 1727 Rocket 4.0 23:37:54 10° NNW 23:44:07 76° W 23:48:04 24° S
APEX 2.9 23:41:42 10° NW 23:44:18 40° WSW 23:44:22 40° WSW
Cosmos 2369 Rocket 2.2 23:39:01 10° NNW 23:44:40 83° ENE 23:48:49 19° SSE
Resurs 1-4 Rocket 4.3 23:42:01 10° NE 23:44:46 14° E 23:47:28 10° ESE
GP-B 4.1 23:42:13 10° NNW 23:46:22 38° W 23:48:50 21° SW
Cosmos 44 3.0 23:43:37 21° SW 23:46:29 82° NW 23:51:00 10° NE
Cosmos 1500 Rocket 3.7 23:44:49 29° S 23:46:57 65° E 23:51:18 10° NNE
Cosmos 371 Rocket 3.9 23:43:41 10° NW 23:48:16 42° WSW 23:50:25 26° SSW
SL-4 R/B 2.6 23:48:59 18° WNW 23:48:59 18° WNW 23:50:05 10° NW
SeaSat 1 4.4 23:46:00 10° ENE 23:49:04 16° ESE 23:51:20 12° SE
Helios 1B rocket 3.0 23:49:33 10° NNE 23:53:33 46° E 23:55:23 27° SSE
CREW DRAGON DEMO-1 DEB 2.6 23:54:49 25° WSW 23:56:27 76° SSE 23:59:32 10° E
